Rakoskert, Hungary

8:37 PM CET on January 24, 2017 (GMT +0100)
Ferihegy

Weather History for LHBP - June, 2012

Change the Weather History Date:

Wednesday, June 27, 2012

  Actual Average Record
Temperature  
Mean Temperature 64 °F -  
Max Temperature 77 °F 78 °F 91 °F (2006)
Min Temperature 51 °F 57 °F 44 °F (2000)
Degree Days  
Heating Degree Days 1    
Growing Degree Days 14 (Base 50)    
Moisture  
Dew Point 47 °F    
Average Humidity 56    
Maximum Humidity 94    
Minimum Humidity 27    
Precipitation  
Precipitation 0.00 in - - ()
Sea Level Pressure  
Sea Level Pressure 30.09 in    
Wind  
Wind Speed 7 mph ()    
Max Wind Speed 21 mph    
Max Gust Speed 30 mph    
Visibility 6.2 miles    
Events      
Averages and records for this station are not official NWS values.
T = Trace of Precipitation, MM = Missing Value Source: Averaged Metar Reports

Daily Weather History Graph

Daily Weather History Graph

Search for Another Location

Airport or City:

Trip Planner

Search our weather history database for the weather conditions in past years. The results will help you decide how hot, cold, wet, or windy it might be!

Date:

Astronomy

Jun. 27, 2012 Rise Set
Actual Time 4:48 AM CEST 8:43 PM CEST
Civil Twilight 4:07 AM CEST 9:24 PM CEST
Nautical Twilight 3:12 AM CEST 10:19 PM CEST
Astronomical Twilight 1:45 AM CEST 11:45 PM CEST
Moon 1:28 PM CEST (6/27) 12:00 AM CEST (6/27)
Length of Visible Light 17h 16m
Length of Day
15h 55m
First Quarter, 53% of the Moon is Illuminated
Jun 27
First Quarter
Jul 3
Full
Jul 11
Last Quarter
Jul 19
New
Jul 26
First Quarter

Hourly Weather History & Observations

Time (CEST) Temp. Dew Point Humidity Pressure Visibility Wind Dir Wind Speed Gust Speed Precip Events Conditions
12:00 AM 57.2 °F 48.2 °F 72% 30.09 in - NW 4.6 mph - N/A   Clear
12:30 AM 55.4 °F 50.0 °F 82% 30.12 in - NNW 5.8 mph - N/A   Clear
1:30 AM 53.6 °F 50.0 °F 88% 30.12 in - Variable 3.5 mph - N/A   Clear
2:00 AM 53.6 °F 50.0 °F 88% 30.12 in - Variable 1.2 mph - N/A   Clear
2:30 AM 53.6 °F 50.0 °F 88% 30.12 in - Variable 2.3 mph - N/A   Clear
3:00 AM 51.8 °F 50.0 °F 94% 30.12 in - Variable 2.3 mph - N/A   Clear
3:30 AM 51.8 °F 50.0 °F 94% 30.12 in - Variable 1.2 mph - N/A   Clear
4:00 AM 51.8 °F 48.2 °F 88% 30.12 in - Variable 2.3 mph - N/A   Clear
4:30 AM 51.8 °F 48.2 °F 88% 30.12 in - NNW 5.8 mph - N/A   Clear
5:00 AM 51.8 °F 48.2 °F 88% 30.09 in - Variable 2.3 mph - N/A   Clear
5:30 AM 51.8 °F 48.2 °F 88% 30.12 in - Variable 2.3 mph - N/A   Clear
6:00 AM 55.4 °F 51.8 °F 88% 30.12 in - WSW 4.6 mph - N/A   Clear
6:30 AM 57.2 °F 51.8 °F 82% 30.12 in - Variable 3.5 mph - N/A   Clear
7:00 AM 59.0 °F 51.8 °F 77% 30.12 in 6.2 mi Variable 2.3 mph - N/A   Partly Cloudy
7:30 AM 64.4 °F 50.0 °F 59% 30.12 in 6.2 mi NW 5.8 mph - N/A   Partly Cloudy
8:00 AM 64.4 °F 51.8 °F 64% 30.12 in 6.2 mi NW 6.9 mph - N/A   Partly Cloudy
8:30 AM 66.2 °F 50.0 °F 56% 30.12 in - NW 10.4 mph - N/A   Clear
9:00 AM 68.0 °F 51.8 °F 56% 30.12 in - NW 9.2 mph - N/A   Clear
9:30 AM 69.8 °F 51.8 °F 53% 30.12 in 6.2 mi NW 8.1 mph - N/A   Scattered Clouds
10:00 AM 69.8 °F 48.2 °F 46% 30.12 in 6.2 mi WNW 13.8 mph - N/A   Scattered Clouds
10:30 AM 69.8 °F 46.4 °F 43% 30.12 in 6.2 mi WNW 16.1 mph - N/A   Scattered Clouds
11:00 AM 71.6 °F 46.4 °F 41% 30.12 in 6.2 mi WNW 17.3 mph - N/A   Scattered Clouds
11:30 AM 71.6 °F 46.4 °F 41% 30.12 in 6.2 mi WNW 16.1 mph - N/A   Scattered Clouds
12:00 PM 71.6 °F 44.6 °F 38% 30.12 in - WNW 20.7 mph - N/A   Clear
12:30 PM 71.6 °F 42.8 °F 35% 30.12 in - West 17.3 mph - N/A   Clear
1:00 PM 73.4 °F 44.6 °F 36% 30.12 in - WNW 12.7 mph - N/A   Clear
1:30 PM 71.6 °F 44.6 °F 38% 30.09 in - West 17.3 mph - N/A   Clear
2:00 PM 73.4 °F 41.0 °F 31% 30.09 in - WNW 16.1 mph - N/A   Clear
2:30 PM 73.4 °F 41.0 °F 31% 30.09 in - WNW 15.0 mph 29.9 mph N/A   Clear
3:00 PM 77.0 °F 42.8 °F 29% 30.09 in - WNW 13.8 mph - N/A   Clear
3:30 PM 75.2 °F 42.8 °F 31% 30.06 in - WNW 12.7 mph - N/A   Clear
4:00 PM 75.2 °F 39.2 °F 27% 30.06 in - WNW 12.7 mph - N/A   Clear
4:30 PM 75.2 °F 39.2 °F 27% 30.06 in - WNW 15.0 mph - N/A   Clear
5:00 PM 75.2 °F 42.8 °F 31% 30.06 in - WNW 12.7 mph - N/A   Clear
5:30 PM 77.0 °F 41.0 °F 28% 30.04 in - WNW 12.7 mph - N/A   Clear
6:00 PM 75.2 °F 41.0 °F 29% 30.04 in - WNW 13.8 mph - N/A   Clear
6:30 PM 75.2 °F 42.8 °F 31% 30.04 in - WNW 13.8 mph - N/A   Clear
7:00 PM 75.2 °F 42.8 °F 31% 30.04 in - WNW 12.7 mph - N/A   Clear
7:30 PM 75.2 °F 44.6 °F 34% 30.04 in - WNW 10.4 mph - N/A   Clear
8:00 PM 73.4 °F 44.6 °F 36% 30.04 in - WNW 9.2 mph - N/A   Clear
8:30 PM 69.8 °F 46.4 °F 43% 30.04 in - WNW 8.1 mph - N/A   Clear
9:00 PM 68.0 °F 48.2 °F 49% 30.04 in - WNW 5.8 mph - N/A   Clear
9:30 PM 64.4 °F 46.4 °F 52% 30.04 in - Variable 2.3 mph - N/A   Clear
10:00 PM 60.8 °F 50.0 °F 68% 30.04 in - Variable 1.2 mph - N/A   Clear
10:30 PM 60.8 °F 50.0 °F 68% 30.04 in - Variable 1.2 mph - N/A   Clear
11:00 PM 57.2 °F 50.0 °F 77% 30.04 in - Variable 3.5 mph - N/A   Clear
11:30 PM 57.2 °F 51.8 °F 82% 30.04 in - Variable 1.2 mph - N/A   Clear